[[{"header":{"parameterUnit":"m.s-1","parameterCategory":1,"la1":30.2991,"la2":30.254,"lo1":-89.0895,"lo2":-89.0444,"dy":0.0017,"dx":0.0017,"nx":28,"ny":28,"refTime":"2024-07-11T21:00:00:Z","depth":0,"parameterNumber":2,"parameterNumberName":"U-component_of_WINDS"},"data":[0,0,0,0,0,0,0,0,0,0,0,0,0,0,0,0,0,0,0,0,0,0,0,0,0,0,0,0,0,0,0,0,0,0,0,0,0,0,0,0,0,0,0,0,0,0,0,0,0,0,0,0,0,0,0,0,0,0,1.5591,1.5591,0,1.5589,1.5589,1.5589,1.5549,1.5548,1.5547,1.5546,1.5545,1.5546,1.5547,0,0,0,0,0,0,0,0,0,0,0,0,0,1.5559,1.556,1.5591,1.5591,1.559,1.5589,1.5589,1.5589,1.5549,1.5548,1.5547,1.5545,1.5545,1.5546,1.5547,0,0,0,0,0,0,0,0,0,0,0,0,0,1.5567,1.556,1.5591,1.557,1.5569,1.5589,1.5589,1.5589,1.5549,1.5548,1.5546,1.5545,1.5544,1.5546,1.5547,1.5587,0,0,1.5551,1.5552,0,0,0,0,0,0,0,0,1.5566,1.5568,1.5573,1.5572,1.557,1.5567,1.5577,1.5588,1.555,1.5557,1.5546,1.5544,1.5554,1.5554,1.5557,1.5587,1.5587,1.5552,1.5552,1.5553,1.5553,0,0,0,0,0,0,0,1.5566,1.5568,1.559,1.5574,1.5571,1.5561,1.5561,1.5579,1.5564,1.5556,1.5553,1.5553,1.5553,1.5556,1.5557,1.5587,1.5552,1.5553,1.5554,1.5554,1.5647,1.5649,0,0,0,0,0,0,1.5568,1.5568,1.559,1.559,1.5564,1.5563,1.5563,1.557,1.5564,1.5561,1.5555,1.5551,1.5555,1.5556,1.5557,1.5602,1.5553,1.5554,1.5555,1.5646,1.5648,1.5649,0,0,0,0,0,0,1.5568,1.5571,1.559,1.5578,1.558,1.5565,1.5574,1.5571,1.5574,1.5563,1.556,1.5561,1.5553,1.5555,1.5579,1.5602,1.5555,1.5556,1.5644,1.5646,1.5648,1.5693,0,0,0,0,0,0,1.5567,1.5571,1.5586,1.5579,1.558,1.5613,1.5575,1.5572,1.5577,1.5572,1.5568,1.5566,1.5552,1.5577,1.5581,1.5603,1.5557,1.5642,1.5645,1.5648,1.569,1.5697,1.5703,0,0,0,0,0,1.5566,1.5599,1.5587,1.559,1.5599,1.5614,1.5615,1.5598,1.5579,1.5593,1.5586,1.5566,1.5599,1.558,1.5584,1.5606,1.564,1.5644,1.5647,1.5687,1.5696,1.5703,0,0,0,0,0,0,1.561,1.5598,1.5584,1.5615,1.5616,1.5607,1.5625,1.5608,1.5615,1.5611,1.559,1.559,1.5617,1.5614,1.5594,1.5644,1.5616,1.562,1.5645,1.5653,1.5659,1.5659,1.5559,0,0,0,0,0,1.5623,1.5636,1.5625,1.5654,1.5654,1.564,1.5646,1.5633,1.5633,1.5633,1.5627,1.5628,1.5638,1.5645,1.5654,1.5689,1.5687,1.5706,1.5713,1.5719,1.5723,1.574,1.5748,1.5661,1.5661,1.5661,0,0,1.565,1.5645,1.5655,1.5662,1.5661,1.5675,1.564,1.5657,1.5667,1.5635,1.5658,1.5654,1.5653,1.5682,1.5695,1.5681,1.5746,1.5723,1.5728,1.5729,1.5745,1.5753,1.576,1.5664,1.5663,1.5663,0,0,1.5708,1.5705,1.5729,1.5728,1.5726,1.5716,1.5722,1.5715,1.5711,1.5733,1.5709,1.5721,1.574,1.574,1.5742,1.5798,1.578,1.5802,1.5837,1.5854,1.5861,1.5866,1.5886,1.5893,1.5806,1.5806,1.5806,0,1.5742,1.5762,1.5743,1.576,1.5764,1.5735,1.5759,1.5759,1.5761,1.5764,1.5748,1.5769,1.5767,1.5796,1.5809,1.5812,1.5818,1.5802,1.5861,1.5867,1.5872,1.589,1.5898,1.5809,1.5808,1.5808,1.5808,0,1.5804,1.5818,1.5837,1.5838,1.5844,1.5864,1.5848,1.5856,1.5843,1.5834,1.5857,1.5853,1.586,1.5866,1.5853,1.5892,1.5883,1.5865,1.5836,1.5883,1.59,1.5907,1.5812,1.5811,1.5811,1.581,0,0,1.5889,1.5879,1.5886,1.5886,1.5881,1.5892,1.5911,1.5917,1.5924,1.5926,1.5941,1.5956,1.5938,1.5941,1.5928,1.5943,1.5987,1.5922,1.5922,1.5934,1.6029,1.6043,1.6051,1.5975,1.5976,1.5977,1.6029,0,1.5944,1.5975,1.5958,1.5991,1.6003,1.5976,1.5992,1.5991,1.5984,1.5993,1.5985,1.5996,1.5972,1.5973,1.5987,1.5979,1.6006,1.5975,1.5988,1.5989,1.5989,1.606,1.6075,1.6124,1.6035,1.6037,1.6037,0,1.6012,1.6016,1.605,1.6042,1.6046,1.6061,1.6065,1.6074,1.6072,1.6066,1.6068,1.6051,1.6069,1.6041,1.6064,1.6044,1.6048,1.6045,1.6047,1.6047,1.6016,1.6062,1.614,1.6147,1.6048,1.6047,1.6046,0,1.607,1.6083,1.6105,1.6106,1.6098,1.6108,1.6106,1.6102,1.6106,1.611,1.6112,1.6118,1.6121,1.6126,1.6111,1.6092,1.6137,1.6107,1.6131,1.6132,1.6142,1.6141,1.6221,1.6146,1.6146,1.6145,1.6145,0,1.6132,1.6154,1.6131,1.6145,1.6168,1.6148,1.6172,1.6166,1.6163,1.6175,1.6152,1.6163,1.6143,1.6152,1.6141,1.6162,1.6163,1.6158,1.6155,1.616,1.6161,1.6163,1.6159,1.6147,1.6147,1.6147,1.6146,0,1.6201,1.6186,1.6208,1.6198,1.6196,1.6214,1.6205,1.6217,1.6207,1.6222,1.6225,1.621,1.622,1.6205,1.6214,1.6206,1.6234,1.6226,1.6235,1.6232,1.6257,1.6255,1.634,1.635,1.6269,1.627,1.627,0,1.6242,1.6258,1.6249,1.6255,1.6253,1.6263,1.6267,1.6248,1.6253,1.6251,1.6263,1.6271,1.6276,1.6293,1.6283,1.6289,1.6281,1.631,1.6282,1.6286,1.628,1.628,1.6281,1.6316,1.6317,1.6318,1.6319,0,1.6316,1.6307,1.6314,1.6318,1.6323,1.6325,1.6326,1.6332,1.6312,1.6319,1.6328,1.6332,1.634,1.6348,1.6351,1.6348,1.633,1.6328,1.6333,1.6339,1.6343,1.634,1.6251,1.6326,1.6325,1.6325,1.6324,1.6324,1.6371,1.6384,1.6379,1.6387,1.6385,1.6385,1.6396,1.6387,1.6394,1.6399,1.6387,1.6399,1.6396,1.6398,1.6397,1.6406,1.6393,1.6402,1.6404,1.6406,1.641,1.6342,1.6407,1.6407,1.6407,1.6406,1.6406,0,1.6443,1.6438,1.6446,1.6446,1.6452,1.6434,1.6433,1.644,1.645,1.6448,1.6454,1.6464,1.6471,1.6462,1.6467,1.6476,1.6468,1.6478,1.6477,1.6477,1.6422,1.6416,1.6485,1.6485,1.6485,1.6485,1.6485,1.6485,1.6481,1.6501,1.6492,1.651,1.6505,1.6516,1.6517,1.6518,1.6516,1.6528,1.6534,1.6527,1.6522,1.6527,1.6532,1.6529,1.6532,1.6545,1.654,1.6488,1.6481,1.6473,1.6468,1.6546,1.6546,1.6594,1.6594,1.6594]},{"header":{"parameterUnit":"m.s-1","parameterCategory":1,"la1":30.2991,"la2":30.254,"lo1":-89.0895,"lo2":-89.0444,"dy":0.0017,"dx":0.0017,"nx":28,"ny":28,"refTime":"2024-07-11T21:00:00:Z","depth":0,"parameterNumber":3,"parameterNumberName":"V-component_of_WINDS"},"data":[0,0,0,0,0,0,0,0,0,0,0,0,0,0,0,0,0,0,0,0,0,0,0,0,0,0,0,0,0,0,0,0,0,0,0,0,0,0,0,0,0,0,0,0,0,0,0,0,0,0,0,0,0,0,0,0,0,0,-0.1847,-0.1848,0,-0.1925,-0.1926,-0.1927,-0.1987,-0.1987,-0.1988,-0.1988,-0.2069,-0.207,-0.2072,0,0,0,0,0,0,0,0,0,0,0,0,0,-0.175,-0.1751,-0.1847,-0.1848,-0.1849,-0.1925,-0.1926,-0.1927,-0.1987,-0.1987,-0.1988,-0.1989,-0.2068,-0.207,-0.2072,0,0,0,0,0,0,0,0,0,0,0,0,0,-0.1806,-0.1752,-0.1847,-0.1888,-0.1892,-0.1925,-0.1926,-0.1928,-0.1987,-0.1987,-0.1988,-0.1989,-0.2067,-0.207,-0.2072,-0.2071,0,0,-0.208,-0.2081,0,0,0,0,0,0,0,0,-0.1803,-0.181,-0.1881,-0.1885,-0.189,-0.1947,-0.1922,-0.1976,-0.1986,-0.1951,-0.1988,-0.1989,-0.2028,-0.2033,-0.2046,-0.2074,-0.2078,-0.208,-0.2081,-0.2082,-0.2083,0,0,0,0,0,0,0,-0.1799,-0.1807,-0.1878,-0.1882,-0.1887,-0.1903,-0.1911,-0.1932,-0.1984,-0.1954,-0.1958,-0.1967,-0.203,-0.2044,-0.2049,-0.2079,-0.208,-0.2082,-0.2083,-0.2084,-0.211,-0.211,0,0,0,0,0,0,-0.1789,-0.1803,-0.1876,-0.188,-0.1848,-0.1904,-0.1914,-0.1928,-0.1984,-0.1993,-0.1966,-0.1969,-0.2039,-0.2046,-0.2052,-0.2054,-0.2082,-0.2085,-0.2086,-0.2111,-0.211,-0.2109,0,0,0,0,0,0,-0.1786,-0.1795,-0.1872,-0.1843,-0.1854,-0.1904,-0.192,-0.1929,-0.1943,-0.1993,-0.2002,-0.197,-0.204,-0.2048,-0.2066,-0.2057,-0.2086,-0.2088,-0.2112,-0.2111,-0.211,-0.2057,0,0,0,0,0,0,-0.1783,-0.1793,-0.1793,-0.1843,-0.1855,-0.1885,-0.192,-0.193,-0.1947,-0.1952,-0.1999,-0.2008,-0.2041,-0.2062,-0.2068,-0.2061,-0.209,-0.2113,-0.2112,-0.211,-0.206,-0.2054,-0.205,0,0,0,0,0,-0.178,-0.1775,-0.1793,-0.1801,-0.1856,-0.1884,-0.1891,-0.193,-0.1946,-0.1946,-0.1978,-0.2006,-0.2057,-0.2063,-0.2071,-0.2064,-0.2114,-0.2112,-0.211,-0.2062,-0.2055,-0.205,0,0,0,0,0,0,-0.1723,-0.1782,-0.1803,-0.1814,-0.1843,-0.1894,-0.1895,-0.1922,-0.1947,-0.1951,-0.1998,-0.2008,-0.2021,-0.2044,-0.205,-0.2066,-0.2089,-0.2089,-0.205,-0.2044,-0.2039,-0.2033,-0.2092,0,0,0,0,0,-0.1712,-0.173,-0.178,-0.1785,-0.1799,-0.1845,-0.1858,-0.1886,-0.1918,-0.1931,-0.1965,-0.1995,-0.2019,-0.2033,-0.2057,-0.2064,-0.2075,-0.2063,-0.2058,-0.2054,-0.2053,-0.2059,-0.2054,-0.2104,-0.2104,-0.2104,0,0,-0.1689,-0.1723,-0.1732,-0.1775,-0.1801,-0.1819,-0.1855,-0.1872,-0.1885,-0.1934,-0.1952,-0.1978,-0.2015,-0.2028,-0.2035,-0.2048,-0.2042,-0.2051,-0.2048,-0.2049,-0.2057,-0.2052,-0.2048,-0.2103,-0.2103,-0.2103,0,0,-0.1656,-0.1684,-0.1691,-0.1717,-0.1756,-0.1786,-0.1788,-0.1835,-0.1854,-0.1873,-0.191,-0.1927,-0.1966,-0.1991,-0.2009,-0.1986,-0.2013,-0.1993,-0.1966,-0.1971,-0.1967,-0.1964,-0.1956,-0.1953,-0.1992,-0.1992,-0.1992,0,-0.1622,-0.165,-0.1692,-0.1706,-0.1724,-0.1769,-0.1777,-0.18,-0.1845,-0.1857,-0.1871,-0.1921,-0.1949,-0.1968,-0.1962,-0.1975,-0.1979,-0.1987,-0.1964,-0.1962,-0.1959,-0.1952,-0.1949,-0.1989,-0.1989,-0.199,-0.199,0,-0.1607,-0.1626,-0.1627,-0.1669,-0.1688,-0.1699,-0.1742,-0.1756,-0.1782,-0.1811,-0.183,-0.1866,-0.1898,-0.1905,-0.193,-0.1927,-0.1934,-0.1956,-0.198,-0.1951,-0.1945,-0.1943,-0.1985,-0.1986,-0.1987,-0.1988,0,0,-0.154,-0.1606,-0.1605,-0.1625,-0.1672,-0.1688,-0.1701,-0.1733,-0.1743,-0.1773,-0.1786,-0.1818,-0.1838,-0.1858,-0.1887,-0.1892,-0.1872,-0.1913,-0.1914,-0.1904,-0.1871,-0.1855,-0.1851,-0.189,-0.189,-0.1889,-0.1868,0,-0.1514,-0.1541,-0.1579,-0.1593,-0.1611,-0.1654,-0.1666,-0.1696,-0.1724,-0.1743,-0.1774,-0.1796,-0.1821,-0.1833,-0.184,-0.1872,-0.1866,-0.1875,-0.1902,-0.1903,-0.1891,-0.1848,-0.183,-0.1808,-0.1866,-0.1866,-0.1865,0,-0.1488,-0.1515,-0.153,-0.1577,-0.1586,-0.1595,-0.1628,-0.1646,-0.1681,-0.1701,-0.1724,-0.1755,-0.1772,-0.1794,-0.1818,-0.1823,-0.1837,-0.1855,-0.1855,-0.1859,-0.1882,-0.185,-0.1802,-0.1799,-0.1862,-0.1862,-0.1863,0,-0.1437,-0.1478,-0.1493,-0.1508,-0.1562,-0.1568,-0.1591,-0.1628,-0.1644,-0.1672,-0.1684,-0.1713,-0.173,-0.1752,-0.1791,-0.1803,-0.1811,-0.1836,-0.1828,-0.1827,-0.1827,-0.1826,-0.178,-0.1836,-0.1836,-0.1836,-0.1836,0,-0.1404,-0.1412,-0.1471,-0.148,-0.149,-0.1534,-0.1543,-0.157,-0.1602,-0.1617,-0.1657,-0.167,-0.172,-0.174,-0.177,-0.1786,-0.1793,-0.1809,-0.1817,-0.1806,-0.1804,-0.1815,-0.1817,-0.1835,-0.1836,-0.1836,-0.1836,0,-0.1349,-0.1389,-0.1408,-0.1457,-0.147,-0.1475,-0.1518,-0.1529,-0.1559,-0.1578,-0.1585,-0.1632,-0.1657,-0.1698,-0.1735,-0.1756,-0.1765,-0.1779,-0.1753,-0.1758,-0.1747,-0.1748,-0.1707,-0.1704,-0.1761,-0.1761,-0.176,0,-0.1325,-0.1332,-0.1383,-0.1396,-0.1417,-0.1438,-0.1455,-0.1499,-0.1515,-0.1557,-0.1562,-0.159,-0.1615,-0.1653,-0.1691,-0.172,-0.1734,-0.1718,-0.1739,-0.1727,-0.1734,-0.1733,-0.1734,-0.1713,-0.1712,-0.1711,-0.1711,0,-0.1279,-0.1298,-0.1322,-0.1352,-0.1371,-0.1397,-0.1425,-0.1434,-0.1484,-0.15,-0.1526,-0.1546,-0.1584,-0.1611,-0.1645,-0.1669,-0.1698,-0.1704,-0.1704,-0.1692,-0.1676,-0.1684,-0.174,-0.1705,-0.1705,-0.1706,-0.1706,-0.1706,-0.1239,-0.1248,-0.1285,-0.1309,-0.1335,-0.136,-0.1373,-0.1404,-0.1427,-0.1461,-0.1486,-0.151,-0.1546,-0.1595,-0.1617,-0.1637,-0.165,-0.165,-0.165,-0.1649,-0.1644,-0.1673,-0.1644,-0.1644,-0.1644,-0.1644,-0.1645,0,-0.1195,-0.1221,-0.1243,-0.1281,-0.1301,-0.1326,-0.1359,-0.1373,-0.1394,-0.1425,-0.1449,-0.1479,-0.1506,-0.1546,-0.1577,-0.1585,-0.1599,-0.1591,-0.1591,-0.1596,-0.1631,-0.1628,-0.1579,-0.1579,-0.1579,-0.1579,-0.1579,-0.1579,-0.1174,-0.119,-0.1214,-0.1243,-0.1269,-0.1293,-0.1309,-0.1333,-0.1358,-0.139,-0.1412,-0.1438,-0.1473,-0.1506,-0.1532,-0.1544,-0.1553,-0.1541,-0.1556,-0.1588,-0.1594,-0.1599,-0.1597,-0.1542,-0.1542,-0.152,-0.1519,-0.1519]}]]